Regional Weather Roundup
Issued by NWS Northern Indiana

Home | Current Version | Previous Version | Text Only | Print | Product List | Glossary Off
Versions: 1 2 3 4 5 6 7 8 9 10 11 12 13 14 15 16 17 18 19 20 21 22 23 24 25 26 27 28 29 30 31 32 33 34 35 36 37 38 39 40 41 42 43 44 45 46 47 48 49 50

000
ASUS43 KIWX 190110
RWRIWX

KIWX WEATHER ROUNDUP
NATIONAL WEATHER SERVICE NORTHERN INDIANA
800 PM EST SAT NOV 18 2017

NOTE: "FAIR" INDICATES FEW OR NO CLOUDS BELOW 12,000 FEET WITH NO
SIGNIFICANT WEATHER AND/OR OBSTRUCTIONS TO VISIBILITY.

* THESE STATIONS ARE NOT UNDER NWS QUALITY CONTROL. THEY ALSO MAY NOT
  REPORT WEATHER SUCH AS PRECIPITATION OR FOG.

INZ001>027-190200-
NORTHERN INDIANA

CITY           SKY/WX    TMP DP  RH WIND       PRES   REMARKS
GARY*          CLOUDY    41  32  70 NW23G37   29.68R
VALPARAISO     CLOUDY    42  36  79 NW16G30   29.63R
MICHIGAN CITY* DRIZZLE   39  37  93 NW16G31   29.62R
LAPORTE*       LGT RAIN  40  38  91 NW21G30   29.61R
KNOX*          CLOUDY    41  37  87 NW25G32   29.58R
SOUTH BEND     LGT RAIN  41  41 100 NW15G23   29.57R
GOSHEN         CLOUDY    40  35  83 NW15      29.53R
MONTICELLO*    CLOUDY    40  38  95 NW21G29   29.61R
LOGANSPORT*    LGT RAIN  41  37  87 NW16G26   29.58R
ROCHESTER*     LGT RAIN  43  43 100 NW15G28   29.55R
WARSAW*        CLOUDY    39  36  87 NW12G20   29.52R
AUBURN*        CLOUDY    37  34  87 NW14G24   29.48R
FORT WAYNE     LGT RAIN  40  37  89 NW17G26   29.48R
HUNTINGTON*    LGT RAIN  38  37  96 N12G22    29.51R
PERU/GRISSOM   LGT RAIN  42  42 100 NW22G38   29.54R
MARION*        CLOUDY    39  38  97 N14G25    29.53R

$$
INZ028>050-190200-
CENTRAL INDIANA

CITY           SKY/WX    TMP DP  RH WIND       PRES   REMARKS
LAFAYETTE      CLOUDY    39  37  92 NW18G33   29.64R
KOKOMO*        LGT RAIN  42  40  92 NW25G32   29.54R
MUNCIE*        LGT RAIN  42  37  82 N23G39    29.49R
INDIANAPOLIS   LGT RAIN  39  36  89 NW22G31   29.59R

$$
MIZ043>046-050>051-056>058-064>065-071>073-077>080-190200-
SOUTHWEST LOWER MICHIGAN

CITY           SKY/WX    TMP DP  RH WIND       PRES   REMARKS
BATTLE CREEK   CLOUDY    38  36  92 NW12      29.50R
BENTON HARBOR  CLOUDY    43  37  79 NW15G35   29.58R
COLDWATER*     DRIZZLE   37  37 100 N14G21    29.47R
HILLSDALE*     LGT SNOW  32  32 100 NW16G24   29.41R WCI  21
HOLLAND        CLOUDY    41  36  82 NW15G25   29.57R
GRAND RAPIDS   CLOUDY    40  38  93 NW12G23   29.51R
KALAMAZOO      CLOUDY    39  35  86 NW14      29.51R
STURGIS*       CLOUDY    37  36  93 NW10G17   29.50R
THREE RIVERS*  CLOUDY    40  37  91 NW12      29.52R

$$
OHZ001>008-015>018-024>025-190200-
NORTHWEST OHIO

CITY           SKY/WX    TMP DP  RH WIND       PRES   REMARKS
WAUSEON*       FLURRIES  36  36 100 N17G30    29.39R
DEFIANCE       LGT RAIN  37  34  89 NW21G30   29.43R
FINDLAY        RAIN      43  39  86 NW23G32   29.33R FOG
TOLEDO EXPRESS LGT RAIN  38  37  97 NW16G26   29.36R
TOLEDO METCALF CLOUDY    40  37  89 NW21G32   29.35R

$$
AND FOR LAKE MICHIGAN COASTAL AND OPEN LAKE BUOY OBSERVATIONS

STATION/POSITION TEMP    WIND        PRES    VSBY  WAVE
                 AIR SEA DIR/SP/G                  HT/PER
                 (F)     (DEG/KT/KT) (MB)    (MI)  (FT/S)
MICHIGAN CITY     42     320/ 35/ 39   N/A
BURNS HARBOR      43     340/ 25/ 33 1003.7R
SAINT JOSEPH      44     340/ 27/ 35 1002.7
SOUTH LAKE BUOY   42 49  350/ 29/ 35 1001.7         11/ 8

$$
&&




USA.gov is the U.S. government's official web portal to all federal, state and local government web resources and services.